sat.trackr.live / text

‹ back to catalog

STARLINK-3711

NORAD 52131 · 2022-029AV

PAYLOAD ACTIVE UNKNOWN

§ Identity

Operator
Country
US
Launch date
2022-03-19
Launch site
AFETR
Launch vehicle
Mass (kg)
RCS (m²)

Purposes: comms

External: N2YO · Heavens-Above · Gunter

§ Orbital elements

Epoch: 2026-05-25T04:39:22.831200Z

Period
94.90 min
Inclination
53.2133°
Eccentricity
0.0003883
Mean motion
15.17405340 rev/d
Perigee alt
511.0 km
Apogee alt
516.4 km
Semi-major
6,891.8 km
B*
1.1033e-3
RAAN
80.2199°
Arg perigee
81.0790°
Mean anomaly
279.0646°
Rev number
23,256

§ Raw data

STARLINK-37111 52131U 22029AV  26145.19401425  .00022079  00000+0  11033-2 0  99902 52131  53.2133  80.2199 0003883  81.0790 279.0646 15.17405340232569

JSON: /api/v1/satellites/52131 · /tle

For live sub-satellite position, see the globe view (requires WebGL).

§ Visibility from observer

Set your observer location to see the next 7 days of passes ≥ 10°. The values pass through the URL so the page stays shareable.

No JS? Fill the form by hand. The geolocation button needs JavaScript.